Location: Platte
(43.3870°N, 98.8440°W)
Time: 16:11:35
(UTC-06:00)

Daily predictions for brighter satellites

Satellite Brightness Start Highest point End
(mag) Time Altitude Azimuth Time Altitude Azimuth Time Altitude Azimuth
Cosmos 1844 Rocket 2.8 17:52:03 10° NNW 17:57:40 59° ENE 18:03:13 10° SE
Lacrosse 5 3.1 17:54:19 10° W 17:58:56 34° NNW 18:03:33 10° NE
Cosmos 44 Rocket 4.4 17:54:49 10° S 17:59:15 30° ESE 18:03:36 10° NE
CZ-3A R/B 3.6 17:53:35 10° NW 17:59:23 34° NNE 18:03:42 10° E
COSMO-SKYMED 1 3.6 17:58:14 10° NE 18:01:56 27° E 18:05:38 10° SSE
YAOGAN 1 2.5 18:00:05 10° SSE 18:04:24 76° ENE 18:08:46 10° N
Cosmos 2333 4.3 17:58:59 10° S 18:04:29 61° ESE 18:10:00 10° NNE
CZ-2C R/B 2.6 17:59:40 10° SSE 18:04:42 82° WSW 18:09:36 10° NNW
Cosmos 2228 Rocket 3.1 18:03:02 10° N 18:07:24 60° E 18:11:47 10° SSE
Cosmos 2360 Rocket 3.1 18:07:19 10° SW 18:12:44 48° WNW 18:18:10 10° NNE
Cosmos 1408 Rocket 4.0 18:09:17 10° SSW 18:13:42 67° W 18:18:09 10° N
SJ-6B 4.3 18:11:58 10° ESE 18:14:43 18° ENE 18:17:29 10° NNE
USA 116 3.4 18:11:46 10° N 18:15:03 74° WNW 18:18:08 10° SSW
Meteor 1-21 Rocket 4.4 18:10:09 10° S 18:16:05 88° W 18:21:59 10° N
CZ-4 R/B 4.4 18:12:07 10° SSE 18:16:15 79° ENE 18:20:25 10° N
Cosmos 389 Rocket 3.3 18:13:05 10° NNW 18:16:39 57° W 18:20:07 10° S
Cosmos 2058 4.1 18:17:59 10° SE 18:21:10 22° E 18:24:22 10° NE
COSMOS 2441 4.4 18:19:06 10° SSE 18:23:58 86° ENE 18:28:51 10° NNW
Atlas Centaur 2 4.5 18:24:12 10° SW 18:26:13 12° SSW 18:28:05 10° S
Cosmos 2333 Rocket 2.5 18:21:02 10° S 18:26:23 46° ESE 18:31:47 10° NE
Cosmos 1763 Rocket 3.6 18:22:11 10° SSW 18:27:25 82° WNW 18:32:38 10° NNE
Cosmos 2346 Rocket 4.5 18:22:28 10° S 18:28:41 71° E 18:34:55 10° NNE
Meteor 2-10 4.4 18:29:19 10° N 18:34:04 38° ENE 18:38:53 10° SE
Cosmos 372 Rocket 4.3 18:29:17 10° N 18:34:06 41° ENE 18:38:54 10° SE
Cosmos 1743 Rocket 3.7 18:31:20 10° S 18:35:48 81° W 18:40:18 10° N
METEOR-M 4.5 18:33:56 10° SE 18:38:55 42° ENE 18:43:57 10° N
Cosmos 2219 Rocket 2.1 18:34:04 10° SSW 18:39:42 77° ESE 18:45:20 10° NNE
Cosmos 1328 Rocket 4.1 18:35:41 10° NNW 18:40:05 63° W 18:44:28 10° S
Meteor 1-27 4.5 18:35:23 10° N 18:41:01 49° ENE 18:46:39 10° SSE
BREEZE-M DEB (TANK) 1.5 18:40:16 10° SW 18:43:09 55° SSE 18:43:55 32° E
Cosmos 1340 Rocket 3.6 18:40:23 10° SSE 18:43:47 28° E 18:45:23 21° NE
Cosmos 2278 Rocket 2.2 18:38:32 10° NNW 18:44:11 63° ENE 18:49:48 10° SE
Cosmos 2151 2.9 18:42:48 10° S 18:46:56 59° E 18:51:05 10° NNE
Abrixas 4.4 18:45:03 10° S 18:47:01 17° SE 18:47:20 16° SE
Cosmos 1515 Rocket 3.9 18:42:37 10° NNW 18:47:05 72° W 18:51:30 10° S
Cosmos 540 Rocket 3.6 18:42:53 10° S 18:47:55 55° ESE 18:52:40 12° NNE
SKYMED 2 3.5 18:45:50 10° NNE 18:50:13 89° ESE 18:54:33 10° SSW
Cosmos 332 Rocket 4.1 18:45:27 10° SSW 18:50:16 70° WNW 18:55:08 10° NNE
SL-14 R/B 3.2 18:48:34 10° S 18:52:27 67° E 18:56:24 10° NNE
Cosmos 1626 4.1 18:51:38 10° SE 18:52:36 15° SE 18:52:36 15° SE
USA 215 3.2 18:48:11 10° SE 18:54:45 85° NE 19:01:21 10° NW
Cosmos 1805 Rocket 4.2 18:51:15 10° SSE 18:55:14 33° E 18:57:08 23° NE
Cosmos 1844 4.2 18:49:32 10° NNW 18:55:15 66° WSW 19:00:58 10° SSE
Cosmos 1151 Rocket 3.0 18:52:11 10° N 18:56:28 83° W 19:00:45 10° S
Cosmos 1484 Rocket 3.8 18:53:46 10° S 18:57:34 49° W 19:01:26 10° NNW
Cosmos 1500 Rocket 4.2 18:58:32 10° SSW 19:02:47 57° W 19:07:06 10° N
DMSP B5D1-3 4.4 18:58:15 10° NNE 19:03:23 83° ESE 19:08:29 10° SSW
Cosmos 1125 Rocket 3.6 18:59:06 10° NNW 19:04:19 77° WSW 19:09:30 10° SSE
Timation 1 Rocket 4.5 18:58:33 10° NNW 19:04:26 51° ENE 19:10:15 10° SE
Cosmos 1634 Rocket 4.4 18:58:23 10° NNW 19:04:31 66° W 19:10:36 10° S
BREEZE M DEB (TANK) 1.0 19:03:13 10° WNW 19:05:47 77° N 19:05:47 77° N
NOAA 12 4.0 19:00:46 10° SSE 19:05:59 78° ENE 19:11:16 10° N
COSMOS 2428 4.0 19:01:59 10° SW 19:07:19 39° WNW 19:12:41 10° NNE
Cosmos 1300 3.2 19:05:19 10° NNW 19:09:07 60° W 19:12:52 10° S
ALOS 2.6 19:05:52 10° SE 19:10:11 40° ENE 19:14:34 10° N
Cosmos 2237 Rocket 2.1 19:04:47 10° SSW 19:10:24 82° ESE 19:14:53 17° NNE
Cosmos 1726 2.9 19:07:08 10° NNW 19:10:49 54° W 19:14:29 10° S
Cosmos 44 3.3 19:07:11 10° SSW 19:12:27 79° ESE 19:15:09 28° NE
Cosmos 2369 Rocket 4.3 19:12:46 10° NNE 19:13:01 10° NNE 19:13:01 10° NNE
SL-16 R/B 2.6 19:09:57 10° S 19:15:09 39° ESE 19:16:18 35° ENE
Spot 2 Rocket 3.7 19:10:57 10° SE 19:15:42 44° ENE 19:20:29 10° N
Lacrosse 5 rocket 1.1 19:15:09 10° NW 19:18:57 67° NE 19:19:24 60° E
Sich 1 3.9 19:15:03 10° SSE 19:17:57 32° SE 19:17:57 32° SE
OTV 4 2.6 19:17:59 10° WSW 19:20:13 19° SSW 19:20:41 19° S
Cosmos 371 Rocket 4.1 19:16:03 10° SW 19:20:42 49° WNW 19:25:21 10° N
Transit 2A Rocket 4.3 19:16:35 10° NNW 19:20:57 86° ENE 19:23:23 25° SSE
Cosmos 1538 Rocket 4.5 19:17:54 10° S 19:22:41 39° ESE 19:22:41 39° ESE
Cosmos 2297 3.7 19:17:35 10° NNW 19:23:15 62° ENE 19:27:01 21° SE
NOSS 0 Rocket 4.2 19:21:26 10° SW 19:27:37 68° WNW 19:32:50 15° NNE
SL-19 R/B 4.2 19:25:15 10° SSE 19:31:13 79° ENE 19:36:53 10° NNW
Resurs 01 Rocket 1.6 19:31:55 61° ENE 19:31:55 61° ENE 19:36:07 10° N
Cosmos 2084 4.2 19:30:10 10° WSW 19:33:50 41° NW 19:34:44 35° NNW
Lacrosse 4 Rocket 3.9 19:31:00 10° N 19:31:06 10° N 19:31:06 10° N
COSMO-SKYMED 1 4.5 19:34:18 10° N 19:38:04 29° WNW 19:41:47 10° SW
Aureole 2 Rocket 2.8 19:34:45 10° SSW 19:38:23 70° WNW 19:38:34 68° NW
Cosmos 44 Rocket 4.4 19:35:48 10° WSW 19:40:38 42° NW 19:43:11 24° N
CENTAUR R/B 3.9 19:35:01 10° W 19:40:40 33° NW 19:45:39 15° NNE
Cosmos 1707 Rocket 3.4 19:38:03 10° N 19:42:24 84° W 19:46:44 10° S
Lacrosse 5 3.8 19:39:50 10° NW 19:43:15 18° N 19:43:59 17° N
Cosmos 1461 4.2 19:44:44 10° SSW 19:47:02 30° S 19:47:02 30° S
SJ-6B 4.1 19:45:12 10° S 19:49:03 42° W 19:52:59 10° NNW
FengYun 1-2 T 4.2 19:46:59 10° SSE 19:52:34 80° WSW 19:58:08 10° NNW
Cosmos 1666 Rocket 4.1 19:49:29 10° S 19:52:39 48° SSW 19:52:39 48° SSW
Cosmos 1900 4.3 19:52:24 10° NNW 19:56:54 74° NNW 19:56:54 74° NNW
H-2A ROCKET BODY 4.1 19:44:03 10° WSW 19:59:39 29° SSW 20:02:29 22° SSE
Cosmos 304 Rocket 4.2 20:01:45 10° SW 20:06:29 57° WNW 20:06:43 57° NW
FENGYUN 3A 4.0 20:01:11 10° S 20:06:29 64° WSW 20:11:51 10° NNW
Cosmos 2333 Rocket 3.9 20:05:59 10° WSW 20:10:51 29° NW 20:14:23 16° N
Nadezhda 4 Rocket 4.4 20:12:19 10° SSW 20:18:29 61° W 20:24:44 10° N
ATLAS 5 CENTAUR R/B 4.4 20:16:41 10° NNW 20:17:47 13° N 20:17:47 13° N
Cosmos 2219 Rocket 4.4 20:20:17 10° W 20:24:17 19° NW 20:27:46 12° N
Cosmos 1092 Rocket 4.3 20:29:35 10° SSW 20:35:50 63° W 20:36:36 58° NW
Cosmos 2237 Rocket 4.4 20:51:20 10° W 20:55:11 18° NW 20:56:46 17° NNW
SL-16 R/B 3.8 20:54:12 10° WSW 20:58:16 31° WNW 20:58:16 31° WNW
